Regional Weather Roundup
Issued by NWS

Home | Current Version | Previous Version | Graphics & Text | Print | Product List | Glossary On
Versions: 1 2 3 4 5 6 7 8 9 10 11 12 13 14 15 16 17 18 19 20 21 22 23 24 25 26 27 28 29 30 31 32 33 34 35 36 37 38 39 40 41 42 43 44 45 46 47 48 49 50
000
ASUS45 KBOU 281407
RWRCO

WEATHER ROUNDUP FOR COLORADO
NATIONAL WEATHER SERVICE DENVER/BOULDER CO
700 AM MST FRI NOV 28 2014

NOTE: "FAIR" INDICATES FEW OR NO CLOUDS BELOW 12000 FEET WITH NO
SIGNIFICANT WEATHER AND/OR OBSTRUCTIONS TO VISIBILITY.

COZ001>005-013-030-031-281500-
...NORTHWEST COLORADO...

CITY           SKY/WX    TMP DP  RH WIND       PRES   REMARKS
CRAIG          CLEAR     22  18  85 SE3       30.16S
HAYDEN         PTCLDY    21  18  86 E14       30.16R WCI   8
MEEKER         PTCLDY    29  19  66 VRB3      30.18R
MOUNT WERNER   NOT AVBL
STEAMBOAT SPGS CLOUDY    14  12  91 CALM      30.18S VSB 1/4
WALDEN         PTCLDY    36  14  41 SE13G23   30.15R
$$

COZ006>008-011-281500-
...WEST CENTRAL VALLEYS...

CITY           SKY/WX    TMP DP  RH WIND       PRES   REMARKS
GRAND JUNCTION CLEAR     22  19  89 CALM      30.22S
MONTROSE       CLEAR     23  18  81 S6        30.25S WCI  16
EAGLE          PTCLDY    25  21  86 CALM      30.25R
RIFLE          CLEAR     25  22  88 SE3       30.24S
DELTA          CLEAR     24  20  85 CALM      30.25R
NUCLA          CLEAR     30  19  64 E6        30.29R WCI  24
$$

COZ017>023-064>068-281500-
...SOUTHWEST COLORADO...

CITY           SKY/WX    TMP DP  RH WIND       PRES   REMARKS
DURANGO        PTCLDY    19  15  84 NE6       30.29S WCI  11
CORTEZ         CLEAR     18  13  80 NE6       30.27S WCI  10
PAGOSA SPRINGS PTCLDY    24  19  80 CALM      30.32S
TELLURIDE      PTCLDY    34   8  33 SE7       30.36R WCI  28
WOLF CREEK PAS PTCLDY    28   3  34 MISG      30.41R
$$

COZ009-010-012-014-032>034-037-058>063-281500-
...CENTRAL COLORADO...

CITY           SKY/WX    TMP DP  RH WIND       PRES   REMARKS
ASPEN          PTCLDY    29  17  61 S8        30.22S WCI  21
BUENA VISTA    CLEAR     48   0  14 NW8G22    30.19R
COPPER MTN     NOT AVBL
BERTHOUD PASS  NOT AVBL
COTTONWOOD PAS CLEAR     46 -17   6 W41G54    30.18S
GUNNISON       MOCLDY    10   3  72 N3        30.38R
KREMMLING      PTCLDY    19  18  93 CALM      30.22R
LEADVILLE      PTCLDY    30   4  33 NE9       30.25S WCI  22
MONARCH PASS   PTCLDY    28   1  31 W39G46    30.45S WCI  11
SALIDA         CLEAR     47   6  18 W14G20    30.23S
SUNLIGHT       PTCLDY    30  19  64 CALM      30.32R
WILKERSON PASS PTCLDY    34  -2  21 W13G23    30.24F WCI  25
$$

COZ069>075-281500-
...SAN LUIS VALLEY/SANGRE DE CRISTO MOUNTAINS...

CITY           SKY/WX    TMP DP  RH WIND       PRES   REMARKS
ALAMOSA        MOCLDY     5   1  83 SW3       30.27S
LA VETA PASS   NOT AVBL
SAGUACHE       MOCLDY    23  16  74 CALM      30.28S
$$

COZ035-036-038>040-281500-
...NORTHERN COLORADO FRONT RANGE...

CITY           SKY/WX    TMP DP  RH WIND       PRES   REMARKS
DENVER INTL AP CLOUDY    40  18  41 SE7       29.95F
DMNS CITY PARK   N/A     42  15  33 S8        29.96S
AURORA         MOCLDY    45  14  28 S8        29.98F
FRONT RANGE AP CLOUDY    41  21  45 S15       29.97S
ERIE MUNI ARPT CLOUDY    56   6  13 SW10G18   29.94S
BOULDER MUN AP CLOUDY    45  16  31 E3        29.92F
CENTENNIAL     CLOUDY    39  16  39 SE10      29.98F
BROOMFIELD     NOT AVBL
FORT COLLINS   MOCLDY    57  16  19 N9G23     29.93S
LONGMONT       MOCLDY    62  11  13 W17G28    29.94F
$$

COZ041-046-047-076>085-087-088-281500-
...PIKES PEAK/PALMER DIVIDE AND SOUTHERN FOOTHILLS...

CITY           SKY/WX    TMP DP  RH WIND       PRES   REMARKS
COLO. SPRINGS  CLOUDY    39  14  36 NE6       30.05F
A. F. ACADEMY  CLOUDY    32  14  47 N7        30.05F WCI  25
ELLICOTT       NOT AVBL
FALCON         NOT AVBL
FORT CARSON    CLOUDY    37  16  43 NW6       30.03S
LIMON          MOCLDY    29  18  63 N10       29.99F WCI  20
MONUMENT HILL  CLOUDY    43   9  24 SW8       30.05S
TRINIDAD       MOCLDY    38  19  46 W13       30.08F
$$

COZ042>045-048>051-090-091-281500-
...NORTHEAST COLORADO...

CITY           SKY/WX    TMP DP  RH WIND       PRES   REMARKS
GREELEY ARPT   MOCLDY    25  18  74 W6        29.94S WCI  18
AKRON          MOCLDY    46  20  35 SW16      29.91F
BURLINGTON     PTCLDY    38  18  44 W12       29.93F
WRAY           PTCLDY    31  24  75 W5        29.91S WCI  26
STERLING       MOCLDY    32  30  93 S9        29.90F WCI  24
HOLYOKE        PTCLDY    34  28  80 W7        29.88F WCI  28
FORT MORGAN    MOCLDY    33  23  65 W9        29.94S WCI  26
$$

COZ086-089-092>099-281500-
...SOUTHEAST COLORADO...

CITY           SKY/WX    TMP DP  RH WIND       PRES   REMARKS
PUEBLO         CLOUDY    31  20  63 W5        30.01F WCI  26
LA JUNTA       MOCLDY    39  22  50 W14       29.99S
LAMAR          MOCLDY    33  23  66 SW9       29.96F WCI  25
SPRINGFIELD      N/A     50  15  24 W16       29.98F
$$


USA.gov is the U.S. government's official web portal to all federal, state and local government web resources and services.